N370MK KJZI-KBCT

Flight info

Callsign N370MK
Flight time N/A
Altitude 40000
Route KIAWA2 GIPPL Q93 KENLL CPTAN3
Aircraft E55P/M-SBDFGHJ2RWY/LB2

Departure

Time 2026-04-25 00:00
Airport Charleston Executive Airport (KJZI)

Arrival

Time N/A
Airport Boca Raton Airport (KBCT)
Time Latitude Longitude Altitude Speed Heading
2026-04-24 23:42 32.69799 -80.00848 17 ft 0 kts
2026-04-24 23:53 32.69801 -80.00848 17 ft 1 kts 359°
2026-04-24 23:53 32.69819 -80.00840 17 ft 5 kts 38°
2026-04-24 23:54 32.69832 -80.00800 17 ft 5 kts 89°
2026-04-24 23:54 32.69832 -80.00752 16 ft 5 kts 88°
2026-04-24 23:54 32.69869 -80.00699 16 ft 10 kts 21°
2026-04-24 23:54 32.69946 -80.00681 16 ft 11 kts 358°
2026-04-24 23:55 32.70041 -80.00684 17 ft 14 kts 360°
2026-04-24 23:55 32.70152 -80.00685 17 ft 16 kts 359°
2026-04-24 23:55 32.70274 -80.00689 17 ft 17 kts 358°
2026-04-24 23:55 32.70380 -80.00674 17 ft 8 kts 58°
2026-04-24 23:56 32.70383 -80.00602 16 ft 9 kts 92°
2026-04-24 23:56 32.70383 -80.00517 15 ft 12 kts 89°
2026-04-24 23:56 32.70385 -80.00386 14 ft 18 kts 89°
2026-04-24 23:56 32.70385 -80.00232 13 ft 18 kts 89°
2026-04-24 23:57 32.70385 -80.00073 11 ft 19 kts 91°
2026-04-24 23:57 32.70390 -79.99910 10 ft 20 kts 88°
2026-04-24 23:57 32.70384 -79.99805 10 ft 4 kts 150°
2026-04-24 23:57 32.70349 -79.99804 10 ft 5 kts 182°
2026-04-24 23:58 32.70304 -79.99790 10 ft 8 kts 137°
2026-04-24 23:58 32.70270 -79.99729 9 ft 6 kts 115°
2026-04-24 23:58 32.70260 -79.99725 9 ft 0 kts 213°
2026-04-24 23:59 32.70227 -79.99751 10 ft 30 kts 214°
2026-04-24 23:59 32.69836 -80.00047 12 ft 100 kts 211°
2026-04-24 23:59 32.69103 -80.00590 154 ft 136 kts 212°
2026-04-24 23:59 32.68243 -80.01221 589 ft 158 kts 210°
2026-04-25 00:00 32.67236 -80.01890 1187 ft 173 kts 206°
2026-04-25 00:00 32.66078 -80.02742 1350 ft 217 kts 214°
2026-04-25 00:00 32.65136 -80.04246 1967 ft 235 kts 245°
2026-04-25 00:00 32.64534 -80.06023 2926 ft 232 kts 248°
2026-04-25 00:01 32.64021 -80.07806 3789 ft 232 kts 251°
2026-04-25 00:01 32.63493 -80.09741 4012 ft 262 kts 252°
2026-04-25 00:01 32.62931 -80.11857 4568 ft 273 kts 253°
2026-04-25 00:01 32.62360 -80.14002 5431 ft 271 kts 253°
2026-04-25 00:02 32.61796 -80.16124 6249 ft 271 kts 255°
2026-04-25 00:02 32.61236 -80.18244 6999 ft 274 kts 255°
2026-04-25 00:02 32.60668 -80.20393 7722 ft 277 kts 255°
2026-04-25 00:02 32.60089 -80.22571 8461 ft 279 kts 255°
2026-04-25 00:03 32.59502 -80.24773 9200 ft 281 kts 255°
2026-04-25 00:03 32.58910 -80.26987 9915 ft 284 kts 253°
2026-04-25 00:03 32.57834 -80.28954 10549 ft 295 kts 223°
2026-04-25 00:03 32.56046 -80.30226 11272 ft 298 kts 213°
2026-04-25 00:04 32.54293 -80.31530 11951 ft 300 kts 214°
2026-04-25 00:04 32.52504 -80.32848 12610 ft 303 kts 214°
2026-04-25 00:04 32.50713 -80.34177 13275 ft 305 kts 214°
2026-04-25 00:04 32.48925 -80.35506 13910 ft 308 kts 214°
2026-04-25 00:05 32.47088 -80.36865 14490 ft 312 kts 215°
2026-04-25 00:05 32.45216 -80.38252 15065 ft 317 kts 215°
2026-04-25 00:05 32.43344 -80.39640 15639 ft 320 kts 215°
2026-04-25 00:05 32.41433 -80.41057 16212 ft 323 kts 215°
2026-04-25 00:06 32.39500 -80.42485 16767 ft 327 kts 215°
2026-04-25 00:06 32.37569 -80.43913 17261 ft 331 kts 215°
2026-04-25 00:06 32.35593 -80.45371 17753 ft 336 kts 215°
2026-04-25 00:06 32.33593 -80.46850 18261 ft 340 kts 215°
2026-04-25 00:07 32.31589 -80.48329 18791 ft 342 kts 215°
2026-04-25 00:07 32.29543 -80.49844 19349 ft 345 kts 215°
2026-04-25 00:07 32.27478 -80.51368 19466 ft 361 kts 215°
2026-04-25 00:07 32.25296 -80.52977 19530 ft 376 kts 215°
2026-04-25 00:08 32.23076 -80.54613 19952 ft 379 kts 214°
2026-04-25 00:08 32.20837 -80.56259 20535 ft 378 kts 214°
2026-04-25 00:08 32.18586 -80.57917 21039 ft 379 kts 214°
2026-04-25 00:08 32.16317 -80.59586 21460 ft 383 kts 215°
2026-04-25 00:09 32.14048 -80.61253 21977 ft 383 kts 215°
2026-04-25 00:09 32.11794 -80.62907 22528 ft 382 kts 215°
2026-04-25 00:09 32.09529 -80.64572 23069 ft 381 kts 215°
2026-04-25 00:09 32.07295 -80.66212 23605 ft 380 kts 214°
2026-04-25 00:10 32.05031 -80.67872 24153 ft 379 kts 214°
2026-04-25 00:10 32.02777 -80.69523 24694 ft 378 kts 214°
2026-04-25 00:10 32.00573 -80.71140 25264 ft 376 kts 214°
2026-04-25 00:10 31.98340 -80.72774 25831 ft 373 kts 214°
2026-04-25 00:11 31.96146 -80.74380 26373 ft 371 kts 214°
2026-04-25 00:11 31.94684 -80.75450 26725 ft 370 kts 214°
2026-04-25 00:11 31.91771 -80.77582 27370 ft 370 kts 214°
2026-04-25 00:11 31.89593 -80.79172 27848 ft 369 kts 214°
2026-04-25 00:12 31.87427 -80.80754 28345 ft 368 kts 214°
2026-04-25 00:12 31.85231 -80.82355 28830 ft 366 kts 214°
2026-04-25 00:12 31.83058 -80.83939 29317 ft 365 kts 214°
2026-04-25 00:12 31.80903 -80.85510 29808 ft 363 kts 214°
2026-04-25 00:13 31.78783 -80.87052 30285 ft 362 kts 214°
2026-04-25 00:13 31.76630 -80.88621 30752 ft 360 kts 214°
2026-04-25 00:13 31.74499 -80.90173 31210 ft 359 kts 214°
2026-04-25 00:13 31.72396 -80.91703 31649 ft 358 kts 214°
2026-04-25 00:14 31.70278 -80.93244 32097 ft 356 kts 214°
2026-04-25 00:14 31.68160 -80.94782 32546 ft 355 kts 214°
2026-04-25 00:14 31.66089 -80.96285 32972 ft 353 kts 214°
2026-04-25 00:14 31.63989 -80.97810 33396 ft 352 kts 214°
2026-04-25 00:15 31.61919 -80.99310 33812 ft 350 kts 214°
2026-04-25 00:15 31.59845 -81.00813 34242 ft 349 kts 214°
2026-04-25 00:15 31.57796 -81.02298 34651 ft 348 kts 214°
2026-04-25 00:15 31.55728 -81.03795 35042 ft 348 kts 214°
2026-04-25 00:16 31.53664 -81.05289 35432 ft 347 kts 214°
2026-04-25 00:16 31.51611 -81.06772 35821 ft 347 kts 214°
2026-04-25 00:16 31.49579 -81.08243 36201 ft 346 kts 214°
2026-04-25 00:16 31.47522 -81.09728 36573 ft 346 kts 214°
2026-04-25 00:17 31.45483 -81.11202 36930 ft 345 kts 214°
2026-04-25 00:17 31.43430 -81.12685 37278 ft 345 kts 215°
2026-04-25 00:17 31.41373 -81.14168 37626 ft 345 kts 215°
2026-04-25 00:17 31.39339 -81.15615 37970 ft 346 kts 210°
2026-04-25 00:18 31.36988 -81.16366 38204 ft 355 kts 183°
2026-04-25 00:18 31.34523 -81.16077 38495 ft 357 kts 175°
2026-04-25 00:18 31.32048 -81.15754 38801 ft 357 kts 177°
2026-04-25 00:18 31.29584 -81.15453 39073 ft 358 kts 177°
2026-04-25 00:19 31.27099 -81.15151 39344 ft 358 kts 177°
2026-04-25 00:19 31.24611 -81.14850 39639 ft 358 kts 177°
2026-04-25 00:19 31.22139 -81.14549 39918 ft 358 kts 177°
2026-04-25 00:19 31.19650 -81.14249 39941 ft 365 kts 177°
2026-04-25 00:20 31.14478 -81.13628 39950 ft 380 kts 177°
2026-04-25 00:20 31.09181 -81.12987 39948 ft 387 kts 177°